When you browse on this site, cookies collect data to enhance your experience and personalize the content and advertising you see.
Visit our Privacy Policy to learn more. By continuing to use the site, you agree to this use of cookies and data.
  • In Portugal
  • List of Countries
  • For 7 days
  • Water Temperature
  • Satellite Maps
  • Weather Map
  • Weather Widgets
  • user-avatar
    Login

    Hourly Weather Klagenfurt

    Today, 19 July, Friday

    Time Temperature Precipitation Wind Pressure Humidity
    00:00 +13°C° 0.5 mm 1 mps 690 mmHg 92%
    01:00 +13°C° 0.5 mm 1 mps 690 mmHg 93%
    02:00 +13°C° 0 mm 1 mps 690 mmHg 93%
    03:00 +13°C° 0 mm 1 mps 690 mmHg 92%
    04:00 +12°C° 0 mm 1 mps 690 mmHg 92%
    05:00 +14°C° 0 mm 1 mps 690 mmHg 91%
    06:00 +14°C° 0 mm 0 mps 690 mmHg 89%
    07:00 +16°C° 0 mm 0 mps 691 mmHg 87%
    08:00 +18°C° 0.2 mm 0 mps 691 mmHg 80%
    09:00 +20°C° 0.2 mm 0 mps 692 mmHg 72%
    10:00 +22°C° 0.2 mm 0 mps 692 mmHg 65%
    11:00 +24°C° 0.5 mm 1 mps 692 mmHg 63%
    12:00 +25°C° 0.5 mm 1 mps 692 mmHg 60%
    13:00 +26°C° 0.5 mm 1 mps 692 mmHg 57%
    14:00 +26°C° 0.3 mm 1 mps 692 mmHg 56%
    15:00 +26°C° 0.3 mm 1 mps 692 mmHg 54%
    16:00 +25°C° 0.3 mm 1 mps 692 mmHg 53%
    17:00 +24°C° 0.1 mm 1 mps 692 mmHg 62%
    18:00 +22°C° 0.1 mm 1 mps 691 mmHg 70%
    19:00 +21°C° 0.1 mm 1 mps 691 mmHg 79%
    20:00 +19°C° 0 mm 1 mps 691 mmHg 81%
    21:00 +18°C° 0 mm 1 mps 691 mmHg 83%
    22:00 +16°C° 0 mm 1 mps 691 mmHg 86%
    23:00 +16°C° 0 mm 1 mps 691 mmHg 85%

    Tomorrow, 20 July, Saturday

    Time Temperature Precipitation Wind Pressure Humidity
    00:00 +15°C° 0 mm 1 mps 691 mmHg 84%
    01:00 +15°C° 0 mm 1 mps 691 mmHg 84%
    02:00 +14°C° 0 mm 1 mps 691 mmHg 83%
    03:00 +14°C° 0 mm 1 mps 691 mmHg 83%
    04:00 +14°C° 0 mm 1 mps 691 mmHg 82%
    05:00 +15°C° 0 mm 0 mps 692 mmHg 78%
    06:00 +16°C° 0 mm 0 mps 692 mmHg 74%
    07:00 +18°C° 0 mm 0 mps 692 mmHg 71%
    08:00 +20°C° 0 mm 0 mps 693 mmHg 63%
    09:00 +24°C° 0 mm 1 mps 693 mmHg 55%
    10:00 +26°C° 0 mm 1 mps 694 mmHg 48%
    11:00 +27°C° 0 mm 1 mps 694 mmHg 46%
    12:00 +28°C° 0 mm 1 mps 694 mmHg 44%
    13:00 +29°C° 0 mm 2 mps 694 mmHg 42%
    14:00 +28°C° 0 mm 2 mps 693 mmHg 44%
    15:00 +28°C° 0 mm 2 mps 693 mmHg 46%
    16:00 +27°C° 0 mm 2 mps 693 mmHg 49%
    17:00 +25°C° 0 mm 2 mps 693 mmHg 59%
    18:00 +23°C° 0 mm 2 mps 693 mmHg 70%
    19:00 +22°C° 0 mm 1 mps 693 mmHg 81%
    20:00 +20°C° 0 mm 1 mps 693 mmHg 84%
    21:00 +19°C° 0 mm 1 mps 693 mmHg 87%
    22:00 +18°C° 0 mm 1 mps 693 mmHg 90%
    23:00 +18°C° 0 mm 1 mps 693 mmHg 89%

    Day after tomorrow, 21 July, Sunday

    Time Temperature Precipitation Wind Pressure Humidity
    00:00 +18°C° 0 mm 1 mps 693 mmHg 87%
    01:00 +16°C° 0 mm 1 mps 693 mmHg 86%
    02:00 +16°C° 0 mm 1 mps 693 mmHg 86%
    03:00 +16°C° 0 mm 1 mps 693 mmHg 86%
    04:00 +16°C° 0 mm 1 mps 693 mmHg 86%
    05:00 +18°C° 0 mm 1 mps 693 mmHg 83%
    06:00 +18°C° 0 mm 0 mps 693 mmHg 79%
    07:00 +19°C° 0 mm 0 mps 694 mmHg 76%
    08:00 +21°C° 0 mm 0 mps 694 mmHg 68%
    09:00 +26°C° 0 mm 1 mps 695 mmHg 61%
    10:00 +28°C° 0 mm 1 mps 695 mmHg 54%
    11:00 +29°C° 0.1 mm 1 mps 695 mmHg 50%
    12:00 +30°C° 0.1 mm 1 mps 696 mmHg 47%
    13:00 +31°C° 0.1 mm 1 mps 696 mmHg 44%
    14:00 +30°C° 0.2 mm 1 mps 695 mmHg 49%
    15:00 +29°C° 0.2 mm 1 mps 695 mmHg 55%
    16:00 +28°C° 0.2 mm 1 mps 695 mmHg 60%
    17:00 +26°C° 0.6 mm 1 mps 695 mmHg 68%
    18:00 +24°C° 0.6 mm 1 mps 695 mmHg 77%
    19:00 +23°C° 0.6 mm 1 mps 695 mmHg 85%
    20:00 +21°C° 0.4 mm 1 mps 695 mmHg 87%
    21:00 +20°C° 0.4 mm 1 mps 695 mmHg 88%
    22:00 +19°C° 0.4 mm 1 mps 696 mmHg 90%
    23:00 +18°C° 0.2 mm 1 mps 695 mmHg 91%

    22 July, Monday

    Time Temperature Precipitation Wind Pressure Humidity
    00:00 +18°C° 0.2 mm 1 mps 695 mmHg 91%
    01:00 +18°C° 0.2 mm 1 mps 695 mmHg 91%
    02:00 +16°C° 0 mm 1 mps 695 mmHg 91%
    03:00 +16°C° 0 mm 1 mps 695 mmHg 91%
    04:00 +16°C° 0 mm 1 mps 695 mmHg 91%
    05:00 +18°C° 0 mm 1 mps 696 mmHg 89%
    06:00 +18°C° 0 mm 0 mps 696 mmHg 86%
    07:00 +19°C° 0 mm 0 mps 696 mmHg 84%
    08:00 +23°C° 0.1 mm 1 mps 697 mmHg 76%
    09:00 +25°C° 0.1 mm 1 mps 697 mmHg 68%
    10:00 +27°C° 0.1 mm 1 mps 698 mmHg 61%
    11:00 +28°C° 0.2 mm 1 mps 698 mmHg 59%
    12:00 +28°C° 0.2 mm 1 mps 697 mmHg 57%
    13:00 +29°C° 0.2 mm 1 mps 697 mmHg 55%
    14:00 +28°C° 0.6 mm 1 mps 697 mmHg 59%
    15:00 +28°C° 0.6 mm 1 mps 697 mmHg 63%
    16:00 +27°C° 0.6 mm 1 mps 697 mmHg 66%
    17:00 +26°C° 0.5 mm 1 mps 697 mmHg 73%
    18:00 +24°C° 0.5 mm 1 mps 696 mmHg 80%
    19:00 +21°C° 0.5 mm 0 mps 696 mmHg 86%
    20:00 +20°C° 0.1 mm 0 mps 696 mmHg 87%
    21:00 +21°C° 0.1 mm 1 mps 696 mmHg 88%
    22:00 +20°C° 0.1 mm 1 mps 696 mmHg 89%
    23:00 +19°C° 0 mm 1 mps 696 mmHg 90%

    23 July, Tuesday

    Time Temperature Precipitation Wind Pressure Humidity
    00:00 +17°C° 0 mm 0 mps 696 mmHg 91%
    01:00 +16°C° 0 mm 0 mps 696 mmHg 93%
    02:00 +16°C° 0 mm 0 mps 696 mmHg 93%
    03:00 +16°C° 0 mm 0 mps 695 mmHg 93%
    04:00 +15°C° 0 mm 0 mps 695 mmHg 94%
    05:00 +16°C° 0 mm 0 mps 695 mmHg 92%
    06:00 +17°C° 0 mm 0 mps 696 mmHg 90%
    07:00 +18°C° 0 mm 0 mps 696 mmHg 88%
    08:00 +22°C° 0 mm 1 mps 696 mmHg 80%
    09:00 +23°C° 0 mm 1 mps 696 mmHg 72%
    10:00 +25°C° 0 mm 1 mps 696 mmHg 64%
    11:00 +26°C° 0 mm 1 mps 696 mmHg 59%
    12:00 +27°C° 0 mm 1 mps 696 mmHg 55%
    13:00 +29°C° 0 mm 1 mps 696 mmHg 50%
    14:00 +28°C° 0 mm 1 mps 696 mmHg 50%
    15:00 +28°C° 0 mm 1 mps 695 mmHg 50%
    16:00 +28°C° 0 mm 1 mps 695 mmHg 51%
    17:00 +26°C° 0 mm 1 mps 695 mmHg 60%
    18:00 +25°C° 0 mm 1 mps 694 mmHg 70%
    19:00 +23°C° 0 mm 1 mps 694 mmHg 79%
    20:00 +22°C° 0 mm 1 mps 694 mmHg 82%
    21:00 +20°C° 0 mm 1 mps 694 mmHg 85%
    22:00 +19°C° 0 mm 1 mps 694 mmHg 87%
    23:00 +17°C° 0 mm 0 mps 694 mmHg 87%

    24 July, Wednesday

    Time Temperature Precipitation Wind Pressure Humidity
    00:00 +16°C° 0 mm 0 mps 694 mmHg 86%
    01:00 +16°C° 0 mm 0 mps 694 mmHg 86%
    02:00 +15°C° 0 mm 0 mps 693 mmHg 86%
    03:00 +15°C° 0 mm 0 mps 693 mmHg 86%
    04:00 +14°C° 0 mm 0 mps 692 mmHg 86%
    05:00 +16°C° 0 mm 0 mps 693 mmHg 82%
    06:00 +17°C° 0 mm 0 mps 693 mmHg 77%
    07:00 +19°C° 0 mm 0 mps 693 mmHg 72%
    08:00 +22°C° 0 mm 1 mps 693 mmHg 66%
    09:00 +24°C° 0 mm 1 mps 693 mmHg 60%
    10:00 +26°C° 0 mm 1 mps 693 mmHg 54%
    11:00 +26°C° 0 mm 1 mps 693 mmHg 52%
    12:00 +27°C° 0 mm 1 mps 693 mmHg 50%
    13:00 +28°C° 0 mm 1 mps 693 mmHg 48%
    14:00 +28°C° 0 mm 1 mps 693 mmHg 49%
    15:00 +28°C° 0 mm 2 mps 692 mmHg 51%
    16:00 +27°C° 0 mm 2 mps 692 mmHg 52%
    17:00 +26°C° 0 mm 1 mps 692 mmHg 60%
    18:00 +24°C° 0 mm 1 mps 691 mmHg 69%
    19:00 +22°C° 0 mm 1 mps 691 mmHg 77%
    20:00 +21°C° 0 mm 1 mps 691 mmHg 79%
    21:00 +20°C° 0 mm 1 mps 691 mmHg 80%
    22:00 +19°C° 0 mm 1 mps 691 mmHg 82%
    23:00 +18°C° 0 mm 1 mps 691 mmHg 81%
    Show more